Location: Cactus School
(34.5700°N, 118.0931°W)
Time: 12:48:16
(UTC-08:00)

A-11 Canister half - Pass Details

Date: 23 November 2019
Orbit: 1515 x 1685 km, 47.2° (Epoch: 13 December)

Event Time Altitude Azimuth Distance (km) Brightness Sun altitude
Rises 20:32:01 0° 298° (WNW) 4,929 12.3 -46.7°
Reaches altitude 10° 20:35:25 10° 304° (NW) 3,947 11.6 -47.4°
Enters shadow 20:41:05 33° 328° (NNW) 2,552 10.2 -48.5°
